Weather History for Ashland, WI

Change the Weather History Date:

Saturday, June 15, 2013

  Actual Average Record
Temperature  
Mean Temperature 62 °F -  
Max Temperature 73 °F 73 °F 94 °F (1988)
Min Temperature 52 °F 48 °F 31 °F (1948)
Degree Days  
Heating Degree Days 2    
Growing Degree Days 12 (Base 50)    
Moisture  
Dew Point 57 °F    
Average Humidity 83    
Maximum Humidity 94    
Minimum Humidity 73    
Precipitation  
Precipitation 0.02 in - - ()
Sea Level Pressure  
Sea Level Pressure 29.89 in    
Wind  
Wind Speed 2 mph (SW)    
Max Wind Speed 9 mph    
Max Gust Speed 17 mph    
Visibility 10 miles    
Events      
Averages and records for this station are not official NWS values.
T = Trace of Precipitation, MM = Missing Value Source: NWS Daily Summary

Daily Weather History Graph

Daily Weather History Graph

Search for Another Location

Airport:

Trip Planner

Search our weather history database for the weather conditions in past years. The results will help you decide how hot, cold, wet, or windy it might be!

Date:

Astronomy

Jun. 15, 2013 Rise Set
Actual Time 5:09 AM CDT 8:58 PM CDT
Civil Twilight 4:30 AM CDT 9:37 PM CDT
Nautical Twilight 3:37 AM CDT 10:31 PM CDT
Astronomical Twilight 2:21 AM CDT 11:48 PM CDT
Moon 12:06 PM CDT (6/15) 12:14 AM CDT (6/15)
Length of Visible Light 17h 07m
Length of Day
15h 48m
Waxing Crescent, 40% of the Moon is Illuminated
Jun 15
Waxing Crescent
Jun 16
First Quarter
Jun 23
Full
Jun 29
Last Quarter
Jul 8
New

Hourly Weather History & Observations

Time (CDT) Temp. Dew Point Humidity Pressure Visibility Wind Dir Wind Speed Gust Speed Precip Events Conditions
12:53 AM 53.1 °F 46.9 °F 80% 29.94 in 10.0 mi Calm Calm - N/A   Overcast
1:53 AM 52.0 °F 46.9 °F 83% 29.94 in 10.0 mi Calm Calm - N/A   Partly Cloudy
2:53 AM 53.1 °F 48.9 °F 86% 29.93 in 10.0 mi Calm Calm - N/A   Overcast
3:53 AM 54.0 °F 52.0 °F 93% 29.92 in 10.0 mi Calm Calm - 0.02 in   Overcast
4:53 AM 55.0 °F 52.0 °F 89% 29.93 in 10.0 mi East 6.9 mph - N/A   Overcast
5:53 AM 55.0 °F 53.1 °F 93% 29.93 in 10.0 mi Calm Calm - N/A   Overcast
6:27 AM 55.4 °F 53.6 °F 94% 29.91 in 10.0 mi Calm Calm - N/A   Overcast
6:53 AM 57.0 °F 54.0 °F 89% 29.93 in 10.0 mi Calm Calm - N/A   Overcast
7:53 AM 57.9 °F 55.0 °F 90% 29.93 in 10.0 mi North 3.5 mph - N/A   Overcast
8:53 AM 59.0 °F 55.0 °F 87% 29.91 in 10.0 mi Calm Calm - N/A   Overcast
9:53 AM 60.1 °F 55.0 °F 83% 29.92 in 10.0 mi Calm Calm - N/A   Overcast
10:53 AM 61.0 °F 55.9 °F 83% 29.90 in 10.0 mi Calm Calm - N/A   Overcast
11:53 AM 63.0 °F 57.9 °F 84% 29.91 in 10.0 mi Calm Calm - N/A   Overcast
12:53 PM 70.0 °F 62.1 °F 76% 29.88 in 10.0 mi Calm Calm - N/A   Overcast
1:53 PM 71.1 °F 64.0 °F 78% 29.91 in 10.0 mi WNW 3.5 mph - N/A   Overcast
2:53 PM 73.0 °F 64.9 °F 76% 29.88 in 10.0 mi SSW 5.8 mph - N/A   Mostly Cloudy
3:53 PM 73.0 °F 64.0 °F 73% 29.88 in 10.0 mi SW 5.8 mph - N/A   Mostly Cloudy
4:53 PM 72.0 °F 64.0 °F 76% 29.86 in 10.0 mi SSW 3.5 mph - N/A   Clear
5:53 PM 70.0 °F 64.0 °F 81% 29.86 in 10.0 mi Calm Calm - N/A   Partly Cloudy
6:53 PM 73.0 °F 64.0 °F 73% 29.83 in 10.0 mi SW 9.2 mph 17.3 mph N/A   Partly Cloudy
7:53 PM 71.1 °F 62.1 °F 73% 29.81 in 10.0 mi Calm Calm - N/A   Clear
8:53 PM 66.0 °F 60.1 °F 81% 29.82 in 10.0 mi WSW 5.8 mph - N/A   Clear
9:53 PM 63.0 °F 57.0 °F 81% 29.83 in 10.0 mi SW 5.8 mph - N/A   Clear
10:53 PM 62.1 °F 57.0 °F 84% 29.84 in 10.0 mi WSW 6.9 mph - N/A   Clear
11:53 PM 60.1 °F 57.9 °F 93% 29.83 in 10.0 mi WSW 8.1 mph - N/A   Clear